Location: Vinland
(47.7731°N, 122.6974°W)
Time: 15:00:58
(UTC+00:00)

Transit 2A - All Passes

Search period start: 30 March 2023 00:00
Search period end: 09 April 2023 00:00
Orbit: 591 x 964 km, 66.7° (Epoch: 29 March)

Date Brightness Start Highest point End Pass type
(mag) Time Alt. Az. Time Alt. Az. Time Alt. Az.
30 Mar - 10:19:25 10° ESE 10:20:50 11° E 10:22:17 10° E visible
30 Mar - 11:57:17 10° SSW 12:02:44 66° ESE 12:08:45 10° NE visible
30 Mar - 13:41:22 10° W 13:46:28 32° NW 13:51:57 10° NNE daylight
30 Mar - 15:28:28 10° NW 15:31:45 15° NNW 15:35:08 10° NNE daylight
30 Mar - 17:14:20 10° NNW 17:17:43 15° NNE 17:21:10 10° NE daylight
30 Mar - 18:57:28 10° NNW 19:03:04 31° NE 19:08:37 10° E daylight
30 Mar - 20:40:32 10° NW 20:46:56 76° WSW 20:53:10 10° SSE daylight
30 Mar - 22:25:40 10° WNW 22:29:10 15° WSW 22:32:37 10° SW daylight
31 Mar - 11:22:58 10° S 11:28:13 47° ESE 11:33:59 10° NE visible
31 Mar - 13:06:15 10° WSW 13:11:35 40° NW 13:17:23 10° NNE visible
31 Mar - 14:52:56 10° NW 14:56:37 16° NNW 15:00:25 10° NNE daylight
31 Mar - 16:39:30 10° NNW 16:42:34 14° N 16:45:39 10° NE daylight
31 Mar - 18:22:53 10° NNW 18:28:07 26° NNE 18:33:19 10° E daylight
31 Mar - 20:05:52 10° NW 20:12:18 83° NE 20:18:34 10° SE daylight
31 Mar - 21:50:11 10° WNW 21:54:52 22° WSW 21:59:26 10° SSW daylight
01 Apr - 10:48:52 10° S 10:53:46 34° ESE 10:59:06 10° NE visible
01 Apr - 12:31:17 10° WSW 12:36:46 51° NW 12:42:47 10° NNE visible
01 Apr - 14:17:26 10° WNW 14:21:31 19° NNW 14:25:47 10° NNE daylight
01 Apr - 16:04:31 10° NNW 16:07:23 13° N 16:10:17 10° NNE daylight
01 Apr - 17:48:19 10° NNW 17:53:07 22° NNE 17:57:54 10° ENE daylight
01 Apr - 19:31:15 10° NNW 19:37:37 64° NE 19:43:49 10° SE daylight
01 Apr - 21:15:04 10° NW 21:20:30 30° WSW 21:25:44 10° SSW daylight
02 Apr - 10:15:01 10° SSE 10:19:22 24° ESE 10:24:05 10° NE visible
02 Apr - 11:56:27 10° SW 12:02:01 68° NW 12:08:11 10° NNE visible
02 Apr - 13:42:00 10° WNW 13:46:27 22° NNW 13:51:11 10° NNE daylight
02 Apr - 15:29:21 10° NNW 15:32:11 13° N 15:35:05 10° NNE daylight
02 Apr - 17:13:43 10° NNW 17:18:03 19° NNE 17:22:25 10° ENE daylight
02 Apr - 18:56:39 10° NNW 19:02:51 49° NE 19:08:55 10° ESE daylight
02 Apr - 20:40:08 10° NW 20:46:03 41° WSW 20:51:46 10° S daylight
03 Apr - 09:41:33 10° SE 09:45:04 17° ESE 09:48:46 10° ENE visible
03 Apr - 11:21:45 10° SSW 11:27:21 89° WNW 11:33:32 10° NE visible
03 Apr - 13:06:38 10° W 13:11:27 26° NNW 13:16:36 10° NNE visible
03 Apr - 14:53:59 10° NW 14:57:00 14° N 15:00:04 10° NNE daylight
03 Apr - 16:39:04 10° NNW 16:42:57 16° NNE 16:46:51 10° ENE daylight
03 Apr - 18:22:04 10° NNW 18:28:01 39° NE 18:33:53 10° ESE daylight
03 Apr - 20:05:19 10° NW 20:11:33 55° WSW 20:17:34 10° SSE daylight
04 Apr - 09:08:58 10° ESE 09:10:48 12° E 09:12:42 10° E visible
04 Apr - 10:47:14 10° SSW 10:52:44 68° ESE 10:58:49 10° NE visible
04 Apr - 12:31:23 10° W 12:36:31 31° NW 12:42:01 10° NNE visible
04 Apr - 14:18:30 10° NW 14:21:49 15° NNW 14:25:14 10° NNE daylight
04 Apr - 16:04:21 10° NNW 16:07:48 15° NNE 16:11:18 10° NE daylight
04 Apr - 17:47:29 10° NNW 17:53:08 32° NE 17:58:42 10° E daylight
04 Apr - 19:30:35 10° NW 19:36:59 74° WSW 19:43:10 10° SSE daylight
04 Apr - 21:15:50 10° WNW 21:19:10 15° W 21:22:27 10° SW daylight
05 Apr - 10:12:53 10° S 10:18:13 49° ESE 10:24:04 10° NE visible
05 Apr - 11:56:15 10° WSW 12:01:37 39° NW 12:07:26 10° NNE visible
05 Apr - 13:42:59 10° NW 13:46:41 16° NNW 13:50:30 10° NNE daylight
05 Apr - 15:29:31 10° NNW 15:32:39 14° N 15:35:47 10° NE daylight
05 Apr - 17:12:55 10° NNW 17:18:11 26° NNE 17:23:25 10° E daylight
05 Apr - 18:55:55 10° NW 19:02:21 84° NE 19:08:35 10° SE daylight
05 Apr - 20:40:18 10° WNW 20:44:52 21° WSW 20:49:19 10° SSW daylight
06 Apr - 09:38:45 10° S 09:43:45 35° ESE 09:49:11 10° NE visible
06 Apr - 11:21:15 10° WSW 11:26:48 51° NW 11:32:51 10° NNE visible
06 Apr - 13:07:28 10° WNW 13:11:34 19° NNW 13:15:50 10° NNE visible
06 Apr - 14:54:31 10° NNW 14:57:27 13° N 15:00:24 10° NNE daylight
06 Apr - 16:38:20 10° NNW 16:43:10 22° NNE 16:48:00 10° ENE daylight
06 Apr - 18:21:16 10° NNW 18:27:39 65° NE 18:33:50 10° SE daylight
06 Apr - 20:05:09 10° NW 20:10:30 29° WSW 20:15:40 10° SSW daylight
07 Apr - 09:04:52 10° SSE 09:09:21 25° ESE 09:14:11 10° NE visible
07 Apr - 10:46:24 10° SW 10:52:02 66° NW 10:58:14 10° NNE visible
07 Apr - 12:32:01 10° WNW 12:36:30 22° NNW 12:41:14 10° NNE visible
07 Apr - 14:19:20 10° NNW 14:22:15 13° N 14:25:10 10° NNE daylight
07 Apr - 16:03:43 10° NNW 16:08:07 19° NNE 16:12:30 10° ENE daylight
07 Apr - 17:46:40 10° NNW 17:52:53 50° NE 17:58:57 10° ESE daylight
07 Apr - 19:30:11 10° NW 19:36:04 40° WSW 19:41:42 10° S daylight
08 Apr - 08:31:21 10° SE 08:35:01 18° ESE 08:38:54 10° ENE visible
08 Apr - 10:11:41 10° SW 10:17:21 87° WNW 10:23:34 10° NE visible
08 Apr - 11:56:37 10° W 12:01:29 26° NNW 12:06:38 10° NNE visible
08 Apr - 13:44:00 10° NW 13:47:02 14° N 13:50:09 10° NNE daylight
08 Apr - 15:29:04 10° NNW 15:33:00 17° NNE 15:36:57 10° ENE daylight
08 Apr - 17:12:04 10° NNW 17:18:03 40° NE 17:23:55 10° ESE daylight
08 Apr - 18:55:21 10° NW 19:01:33 54° WSW 19:07:31 10° SSE daylight
